Moore, Oklahoma, United States
Lat: 35.34N, Lon: 97.49W
Wx Zone: OKZ029
Local Info
Past Weather Observations for Saturday, April 25, 2015

NOTE: This archive is for the closest National Weather Service station to Moore. Information may differ from the station used for current weather conditions.

Click here for Long-term Archive

Time Weather Temperature Dewpoint Humidity Pressure Winds Precip Visibility
23:52
Partly Cloudy
64°F / 18°C 52°F / 11°C 64% 29.68 in
(1005 mb)
NE 11.5 mph
(NE 19 kph)
- 10SM
22:52
Partly Cloudy
66°F / 19°C 50°F / 10°C 56% 29.68 in
(1005 mb)
SSE 5.8 mph
(SSE 9 kph)
- 10SM
21:52
Partly Cloudy
64°F / 18°C 52°F / 11°C 64% 29.68 in
(1005 mb)
SE 8.1 mph
(SE 13 kph)
- 10SM
20:52
Clear
66°F / 19°C 52°F / 11°C 60% 29.65 in
(1004 mb)
SE 6.9 mph
(SE 11 kph)
- 10SM
19:52
Partly Cloudy
70°F / 21°C 52°F / 11°C 53% 29.65 in
(1004 mb)
SSE 4.6 mph
(SSE 7 kph)
- 10SM
18:52
Partly Cloudy
75°F / 24°C 54°F / 12°C 47% 29.62 in
(1003 mb)
S 4.6 mph
(S 7 kph)
- 8SM
17:52
Partly Cloudy
81°F / 27°C 54°F / 12°C 39% 29.62 in
(1003 mb)
SW 5.8 mph
(SW 9 kph)
- 10SM
16:52
Partly Cloudy
82°F / 28°C 50°F / 10°C 32% 29.62 in
(1003 mb)
SSW 9.2 mph
(SSW 15 kph)
- 10SM
15:52
Partly Cloudy
82°F / 28°C 50°F / 10°C 32% 29.62 in
(1003 mb)
NW 6.9 mph
(NW 11 kph)
- 10SM
14:52
Partly Cloudy
82°F / 28°C 50°F / 10°C 32% 29.62 in
(1003 mb)
WNW 9.2 mph
(WNW 15 kph)
- 10SM
13:52
Clear
82°F / 28°C 50°F / 10°C 32% 29.65 in
(1004 mb)
SSW 12.7 mph
(SSW 20 kph)
- 10SM
12:52
Clear
81°F / 27°C 54°F / 12°C 39% 29.65 in
(1004 mb)
Variable 5.8 mph
(Variable 9 kph)
- 10SM
11:52
Clear
79°F / 26°C 54°F / 12°C 42% 29.65 in
(1004 mb)
SSW 8.1 mph
(SSW 13 kph)
- 10SM
10:52
Clear
77°F / 25°C 52°F / 11°C 42% 29.65 in
(1004 mb)
SW 10.4 mph
(SW 17 kph)
- 10SM
09:52
Clear
73°F / 23°C 52°F / 11°C 47% 29.65 in
(1004 mb)
SW 10.4 mph
(SW 17 kph)
- 10SM
08:52
Clear
68°F / 20°C 52°F / 11°C 56% 29.65 in
(1004 mb)
SW 5.8 mph
(SW 9 kph)
- 10SM
07:52
Clear
64°F / 18°C 48°F / 9°C 56% 29.65 in
(1004 mb)
SSW 5.8 mph
(SSW 9 kph)
- 10SM
06:52
Clear
55°F / 13°C 48°F / 9°C 77% 29.65 in
(1004 mb)
S 3.5 mph
(S 6 kph)
- 10SM
05:52
Clear
52°F / 11°C 43°F / 6°C 72% 29.62 in
(1003 mb)
SSE 3.5 mph
(SSE 6 kph)
- 10SM
04:52
Clear
54°F / 12°C 45°F / 7°C 72% 29.59 in
(1002 mb)
SSW 5.8 mph
(SSW 9 kph)
- 10SM
03:52
Clear
55°F / 13°C 46°F / 8°C 72% 29.59 in
(1002 mb)
SSW 8.1 mph
(SSW 13 kph)
- 10SM
02:52
Clear
61°F / 16°C 48°F / 9°C 63% 29.56 in
(1001 mb)
SSW 12.7 mph
(SSW 20 kph)
- 10SM
01:52
Clear
63°F / 17°C 54°F / 12°C 73% 29.53 in
(1000 mb)
SW 12.7 mph
(SW 20 kph)
- 10SM
00:52
Partly Cloudy
61°F / 16°C 57°F / 14°C 88% 29.56 in
(1001 mb)
S 11.5 mph
(S 19 kph)
- 10SM
00:13
Partly Cloudy
63°F / 17°C 57°F / 14°C 83% 29.59 in
(1002 mb)
S 12.7 mph
(S 20 kph)
- 10SM
Time Weather Temperature Dewpoint Humidity Pressure Winds Precip Visibility


Weather for websites

WeatherForYou.com, LLC is not responsible for any damages or problems caused by this service. Current weather conditions are obtained from the closest station including government and personal stations which may have varying degrees of accuracy. Weather forecasts are derived from the NOAA NDFD. Like all things, this site belongs to Jesus Christ... He just trusts us to maintain it. If you have any questions or comments email webmaster@weatherforyou.com

Copyright © 2015, WeatherForYou.com LLC. All rights reserved.